Location: Worth Mountain WMA
(34.9569°N, 81.4819°W)
Time: 15:26:17
(UTC-04:00)

Cosmos 1975 Rocket - Pass Details

Date: 18 August 2017
Orbit: 603 x 635 km, 82.5° (Epoch: 23 September)

Event Time Altitude Azimuth Distance (km) Brightness Sun altitude
Rises 20:33:01 0° 359° (N) 2,931 6.8 -5.3°
Reaches altitude 10° 20:35:19 10° 4° (N) 2,016 5.9 -5.7°
Maximum altitude 20:39:41 51° 81° (E) 793 3.3 -6.5°
Drops below altitude 10° 20:43:58 10° 157° (SSE) 1,986 5.3 -7.4°
Sets 20:46:13 0° 163° (SSE) 2,882 6.1 -7.8°
